Regional Weather Roundup
Issued by NWS

Home | Current Version | Previous Version | Text Only | Print | Product List | Glossary Off
Versions: 1 2 3 4 5 6 7 8 9 10 11 12 13 14 15 16 17 18 19 20 21 22 23 24 25 26 27 28 29 30 31 32 33 34 35 36 37 38 39 40 41 42 43 44 45 46 47 48 49 50

000
ASUS43 KDMX 201301
RWRIA

WEATHER ROUNDUP FOR IOWA
NATIONAL WEATHER SERVICE DES MOINES IA
800 AM CDT WED SEP 20 2017

NOTE: "FAIR" INDICATES FEW OR NO CLOUDS BELOW 12,000 FEET WITH NO
SIGNIFICANT WEATHER AND/OR OBSTRUCTIONS TO VISIBILITY.

* - THESE STATIONS ARE NOT NWS STATIONS...THUS NOT UNDER NWS
QUALITY CONTROL.  THEY ALSO DO NOT REPORT WEATHER SUCH
AS PRECIPITATION OR FOG.

IAZ001>003-012>014-020>022-031>034-043>046-201400-
   NORTHWEST IOWA

CITY           SKY/WX    TMP DP  RH WIND       PRES   REMARKS
CARROLL *      PTCLDY    66  63  88 NW5       29.72R
CHEROKEE *     CLEAR     60  58  92 NW3       29.76R
DENISON *      PTCLDY    63  57  82 NW7       29.76R
LE MARS *      CLEAR     57  55  94 NW10      29.77R
ORANGE CITY *  CLEAR     57  57 100 NW8       29.77R
SHELDON *      CLEAR     57  55  94 VRB3      29.75R
SIOUX CITY     CLEAR     58  57  97 NW7       29.77R
SPENCER        CLEAR     59  56  89 W12       29.75R
STORM LAKE *   CLEAR     59  55  88 NW13      29.76R
$$

IAZ055>058-069>071-079>083-090>094-201400-
   SOUTHWEST IOWA

CITY           SKY/WX    TMP DP  RH WIND       PRES   REMARKS
ATLANTIC *     CLOUDY    72  70  94 CALM      29.73R
AUDUBON *      CLOUDY    73  70  88 CALM      29.74R
CLARINDA *     CLEAR     73  70  88 S8        29.74R
COUNCIL BLFS * PTCLDY    66  64  94 N6        29.73R
CRESTON *      CLEAR     72 -36   1 S14       29.75R
HARLAN  *      MOCLDY    68  63  83 N6        29.76R
LAMONI         SUNNY     71  68  90 S8        29.76R
RED OAK *      CLEAR     72  70  94 S5        29.72R
SHENANDOAH *   CLEAR     73  70  88 VRB5      29.72R
$$

IAZ047>049-059>061-072>074-084-201400-
   CENTRAL IOWA

CITY           SKY/WX    TMP DP  RH WIND       PRES   REMARKS
AMES           MOSUNNY   74  70  87 S9        29.72R
ANKENY *       SUNNY     73  68  83 S6        29.73R
BOONE *        CLOUDY    72  68  88 CALM      29.73R
CHARITON *     SUNNY     72  68  88 S12G18    29.75R
DES MOINES     MOSUNNY   74  68  81 S8        29.72R
GRINNELL*      SUNNY     70  65  86 S9        29.77R
KNOXVILLE *    SUNNY     73  68  83 S13G18    29.73S
MARSHALLTOWN   SUNNY     70  67  90 S12       29.73R
NEWTON *       SUNNY     70  66  88 S7        29.75R
PELLA *        SUNNY     74  67  78 S8        29.76S
PERRY *        MOCLDY    72  70  94 CALM      29.72R
$$

IAZ004>006-015-016-023>025-035-036-201400-
   NORTH CENTRAL IOWA

CITY           SKY/WX    TMP DP  RH WIND       PRES   REMARKS
ALGONA *       CLEAR     63  63 100 SW3       29.71R
CLARION *      SUNNY     72  72 100 S10       29.71R
ESTHERVILLE    CLEAR     59  58  96 W7        29.73R
FORT DODGE *   CLEAR     66  64  93 W3        29.72R
MASON CITY     PTSUNNY   69  66  90 S8        29.73R
FOREST CITY *    N/A     70  68  94 SW3       29.70S
IOWA FALLS *   CLOUDY    70  67  92 SE6       29.74R
$$

IAZ007>011-017>019-026>030-037>042-050>054-066-201400-
   NORTHEAST IOWA

CITY           SKY/WX    TMP DP  RH WIND       PRES   REMARKS
CEDAR RAPIDS   SUNNY     70  66  87 S13       29.78R
CHARLES CITY * CLOUDY    72  68  88 S10G17    29.74R
CLINTON *      SUNNY     67  65  93 SE13      29.84R
DECORAH *      MOSUNNY   70  64  83 S10G18    29.74S
DUBUQUE        PTSUNNY   67  64  90 S13       29.82R
MONTICELLO *   MOSUNNY   68  64  88 SE8       29.80R
OELWEIN *      MOSUNNY   70  68  94 SE12      29.77S
WATERLOO       SUNNY     70  65  84 S16       29.72S
$$

IAZ064-065-067-068-078-201400-
   EAST CENTRAL IOWA

CITY           SKY/WX    TMP DP  RH WIND       PRES   REMARKS
DAVENPORT      SUNNY     71  65  81 S10       29.85R
IOWA CITY      SUNNY     71  66  84 S8        29.82R
MUSCATINE *    MOSUNNY   72  66  83 S6        29.82S
QUAD CITIES    SUNNY     71  65  81 S8        29.83R
$$

IAZ062-063-075>077-085>089-095>099-201400-
   SOUTHEAST IOWA

CITY           SKY/WX    TMP DP  RH WIND       PRES   REMARKS
BURLINGTON     SUNNY     73  69  87 S12       29.83R
FAIRFIELD *    MOSUNNY   73  66  78 S10       29.80R
FORT MADISON * SUNNY     72  68  88 S12       29.84S
KEOKUK *       SUNNY     72  68  88 SE6       29.83R
OSKALOOSA *      N/A     71  66  86 S9        29.78S
OTTUMWA        SUNNY     73  67  81 S9        29.78R
WASHINGTON *   MOSUNNY   72  68  88 S9        29.82R
$$

ABBREVIATIONS USED IN REMARKS
   TC - TEMPERATURES IN CELSIUS
  WCI - WIND CHILL INDEX
   HX - HEAT INDEX
  VSB - VISIBILITY
$$




USA.gov is the U.S. government's official web portal to all federal, state and local government web resources and services.